Time,TemperatureF,DewpointF,PressureIn,WindDirection,WindDirectionDegrees,WindSpeedMPH,WindSpeedGustMPH,Humidity,HourlyPrecipIn,Conditions,Clouds,dailyrainin,SoftwareType,DateUTC
2013-02-28 00:00:00,29.1,14.1,0.00,NNW,339,5.4,8.1,53,0.00,,,0.00,VWS V13.01,2013-02-28 06:00:00,
2013-02-28 00:01:00,29.3,14.3,0.00,NNW,339,3.6,8.1,53,0.00,,,0.00,VWS V13.01,2013-02-28 06:01:00,
2013-02-28 00:02:00,29.1,14.1,0.00,NE,54,4.0,4.5,53,0.00,,,0.00,VWS V13.01,2013-02-28 06:02:00,
2013-02-28 00:03:00,29.1,14.1,0.00,NNW,346,2.7,4.0,53,0.00,,,0.00,VWS V13.01,2013-02-28 06:03:00,
2013-02-28 00:04:00,29.1,14.1,0.00,NNW,341,4.9,5.8,53,0.00,,,0.00,VWS V13.01,2013-02-28 06:04:00,
2013-02-28 00:05:00,29.1,14.6,0.00,NNW,328,5.4,5.8,54,0.00,,,0.00,VWS V13.01,2013-02-28 06:05:00,
2013-02-28 00:06:00,29.1,14.6,0.00,NNW,327,5.4,5.8,54,0.00,,,0.00,VWS V13.01,2013-02-28 06:06:00,
2013-02-28 00:07:00,29.3,14.7,0.00,NNW,348,4.0,6.3,54,0.00,,,0.00,VWS V13.01,2013-02-28 06:07:00,
2013-02-28 00:08:00,29.3,14.7,0.00,North,357,2.7,5.8,54,0.00,,,0.00,VWS V13.01,2013-02-28 06:08:00,
2013-02-28 00:09:00,29.3,14.7,0.00,North,1,5.4,5.4,54,0.00,,,0.00,VWS V13.01,2013-02-28 06:09:00,
2013-02-28 00:10:00,29.3,14.7,0.00,North,353,0.0,4.0,54,0.00,,,0.00,VWS V13.01,2013-02-28 06:10:00,
2013-02-28 00:11:00,29.3,14.7,0.00,North,0,3.6,4.0,54,0.00,,,0.00,VWS V13.01,2013-02-28 06:11:00,
2013-02-28 00:12:00,29.3,14.7,0.00,NNW,331,4.0,5.8,54,0.00,,,0.00,VWS V13.01,2013-02-28 06:12:00,
2013-02-28 00:13:00,29.3,14.7,0.00,NW,321,3.6,4.0,54,0.00,,,0.00,VWS V13.01,2013-02-28 06:13:00,
2013-02-28 00:14:00,29.3,14.7,0.00,NNW,337,4.9,5.8,54,0.00,,,0.00,VWS V13.01,2013-02-28 06:14:00,
2013-02-28 00:15:00,29.3,14.7,0.00,North,7,4.0,4.0,54,0.00,,,0.00,VWS V13.01,2013-02-28 06:15:00,
2013-02-28 00:16:00,29.3,14.7,0.00,North,353,3.6,4.9,54,0.00,,,0.00,VWS V13.01,2013-02-28 06:16:00,
2013-02-28 00:17:00,29.3,14.7,0.00,North,350,5.4,5.8,54,0.00,,,0.00,VWS V13.01,2013-02-28 06:17:00,
2013-02-28 00:18:00,29.3,14.7,0.00,North,353,2.7,5.4,54,0.00,,,0.00,VWS V13.01,2013-02-28 06:18:00,
2013-02-28 00:19:00,29.3,14.7,0.00,North,0,4.0,4.0,54,0.00,,,0.00,VWS V13.01,2013-02-28 06:19:00,
2013-02-28 00:20:00,29.5,14.9,0.00,NW,321,3.6,6.3,54,0.00,,,0.00,VWS V13.01,2013-02-28 06:20:00,
2013-02-28 00:21:00,29.5,14.9,0.00,NNW,333,2.7,6.3,54,0.00,,,0.00,VWS V13.01,2013-02-28 06:21:00,
2013-02-28 00:22:00,29.5,14.5,0.00,WNW,301,2.7,4.5,53,0.00,,,0.00,VWS V13.01,2013-02-28 06:22:00,
2013-02-28 00:23:00,29.5,14.5,0.00,North,349,3.1,4.0,53,0.00,,,0.00,VWS V13.01,2013-02-28 06:23:00,
2013-02-28 00:24:00,29.5,14.5,0.00,North,353,4.9,4.9,53,0.00,,,0.00,VWS V13.01,2013-02-28 06:24:00,
2013-02-28 00:25:00,29.5,14.5,0.00,NNW,328,5.8,7.2,53,0.00,,,0.00,VWS V13.01,2013-02-28 06:25:00,
2013-02-28 00:26:00,29.5,14.5,0.00,NW,317,3.6,7.2,53,0.00,,,0.00,VWS V13.01,2013-02-28 06:26:00,
2013-02-28 00:27:00,29.5,14.5,0.00,NNW,327,4.9,4.9,53,0.00,,,0.00,VWS V13.01,2013-02-28 06:27:00,
2013-02-28 00:28:00,29.5,14.5,0.00,NNW,341,5.4,5.4,53,0.00,,,0.00,VWS V13.01,2013-02-28 06:28:00,
2013-02-28 00:29:00,29.5,14.5,0.00,NNW,330,2.2,8.7,53,0.00,,,0.00,VWS V13.01,2013-02-28 06:29:00,
2013-02-28 00:30:00,29.5,14.5,0.00,NW,318,2.7,4.0,53,0.00,,,0.00,VWS V13.01,2013-02-28 06:30:00,
2013-02-28 00:31:00,29.5,14.5,0.00,NNW,344,3.6,4.0,53,0.00,,,0.00,VWS V13.01,2013-02-28 06:31:00,
2013-02-28 00:32:00,29.5,14.5,0.00,North,6,2.2,5.8,53,0.00,,,0.00,VWS V13.01,2013-02-28 06:32:00,
2013-02-28 00:33:00,29.5,14.0,0.00,NNE,24,8.7,8.7,52,0.00,,,0.00,VWS V13.01,2013-02-28 06:33:00,
2013-02-28 00:34:00,29.7,14.2,0.00,NW,304,4.9,8.7,52,0.00,,,0.00,VWS V13.01,2013-02-28 06:34:00,
2013-02-28 00:35:00,29.7,14.2,0.00,North,9,5.8,7.6,52,0.00,,,0.00,VWS V13.01,2013-02-28 06:35:00,
2013-02-28 00:36:00,29.7,14.2,0.00,NE,35,3.1,7.6,52,0.00,,,0.00,VWS V13.01,2013-02-28 06:36:00,
2013-02-28 00:37:00,29.7,13.8,0.00,North,10,5.4,5.4,51,0.00,,,0.00,VWS V13.01,2013-02-28 06:37:00,
2013-02-28 00:38:00,29.8,13.9,0.00,NW,322,0.0,5.4,51,0.00,,,0.00,VWS V13.01,2013-02-28 06:38:00,
2013-02-28 00:39:00,29.8,13.9,0.00,North,1,3.1,5.4,51,0.00,,,0.00,VWS V13.01,2013-02-28 06:39:00,
2013-02-28 00:40:00,29.8,13.9,0.00,North,9,2.7,6.3,51,0.00,,,0.00,VWS V13.01,2013-02-28 06:40:00,
2013-02-28 00:41:00,29.8,13.9,0.00,North,5,5.8,6.3,51,0.00,,,0.00,VWS V13.01,2013-02-28 06:41:00,
2013-02-28 00:42:00,29.8,13.9,0.00,NW,324,5.8,6.3,51,0.00,,,0.00,VWS V13.01,2013-02-28 06:42:00,
2013-02-28 00:43:00,30.0,14.1,0.00,NNW,340,5.4,8.3,51,0.00,,,0.00,VWS V13.01,2013-02-28 06:43:00,
2013-02-28 00:44:00,30.0,14.1,0.00,NNW,330,4.0,5.4,51,0.00,,,0.00,VWS V13.01,2013-02-28 06:44:00,
2013-02-28 00:45:00,30.0,13.6,0.00,North,4,5.4,7.6,50,0.00,,,0.00,VWS V13.01,2013-02-28 06:45:00,
2013-02-28 00:46:00,30.0,13.6,0.00,NNW,346,4.0,7.6,50,0.00,,,0.00,VWS V13.01,2013-02-28 06:46:00,
2013-02-28 00:47:00,30.0,13.6,0.00,North,357,5.4,8.1,50,0.00,,,0.00,VWS V13.01,2013-02-28 06:47:00,
2013-02-28 00:48:00,30.2,13.8,0.00,ENE,71,3.6,5.4,50,0.00,,,0.00,VWS V13.01,2013-02-28 06:48:00,
2013-02-28 00:49:00,30.2,13.8,0.00,North,1,2.7,4.0,50,0.00,,,0.00,VWS V13.01,2013-02-28 06:49:00,
2013-02-28 00:50:00,30.2,13.4,0.00,NNW,342,3.6,5.8,49,0.00,,,0.00,VWS V13.01,2013-02-28 06:50:00,
2013-02-28 00:51:00,30.2,13.4,0.00,NE,38,4.9,6.3,49,0.00,,,0.00,VWS V13.01,2013-02-28 06:51:00,
2013-02-28 00:52:00,30.2,13.4,0.00,North,350,3.6,6.3,49,0.00,,,0.00,VWS V13.01,2013-02-28 06:52:00,
2013-02-28 00:53:00,30.2,13.4,0.00,NNW,328,4.9,5.8,49,0.00,,,0.00,VWS V13.01,2013-02-28 06:53:00,
2013-02-28 00:54:00,30.2,13.4,0.00,NNW,335,3.1,4.9,49,0.00,,,0.00,VWS V13.01,2013-02-28 06:54:00,
2013-02-28 00:55:00,30.2,12.4,0.00,NNW,339,7.6,11.0,47,0.00,,,0.00,VWS V13.01,2013-02-28 06:55:00,
2013-02-28 00:56:00,30.2,12.4,0.00,NNE,21,6.3,11.0,47,0.00,,,0.00,VWS V13.01,2013-02-28 06:56:00,
2013-02-28 00:57:00,30.2,12.4,0.00,North,353,5.4,6.3,47,0.00,,,0.00,VWS V13.01,2013-02-28 06:57:00,
2013-02-28 00:58:00,30.4,12.1,0.00,East,91,7.6,8.1,46,0.00,,,0.00,VWS V13.01,2013-02-28 06:58:00,
2013-02-28 00:59:00,30.4,12.1,0.00,NNW,327,8.7,8.7,46,0.00,,,0.00,VWS V13.01,2013-02-28 06:59:00,
2013-02-28 01:00:00,30.4,12.1,0.00,NE,34,4.0,6.3,46,0.00,,,0.00,VWS V13.01,2013-02-28 07:00:00,
2013-02-28 01:01:00,30.4,12.1,0.00,NNE,18,2.7,6.3,46,0.00,,,0.00,VWS V13.01,2013-02-28 07:01:00,
2013-02-28 01:02:00,30.4,12.1,0.00,North,6,0.0,4.9,46,0.00,,,0.00,VWS V13.01,2013-02-28 07:02:00,
2013-02-28 01:03:00,30.4,12.1,0.00,North,0,4.0,4.0,46,0.00,,,0.00,VWS V13.01,2013-02-28 07:03:00,
2013-02-28 01:04:00,30.4,12.1,0.00,ENE,57,2.2,4.0,46,0.00,,,0.00,VWS V13.01,2013-02-28 07:04:00,
2013-02-28 01:05:00,30.4,12.1,0.00,NNW,341,4.0,4.0,46,0.00,,,0.00,VWS V13.01,2013-02-28 07:05:00,
2013-02-28 01:06:00,30.4,12.1,0.00,NNE,25,3.6,4.0,46,0.00,,,0.00,VWS V13.01,2013-02-28 07:06:00,
2013-02-28 01:07:00,30.4,12.1,0.00,North,357,3.1,6.3,46,0.00,,,0.00,VWS V13.01,2013-02-28 07:07:00,
2013-02-28 01:08:00,30.4,12.1,0.00,NNW,348,2.7,4.0,46,0.00,,,0.00,VWS V13.01,2013-02-28 07:08:00,
2013-02-28 01:09:00,30.4,11.6,0.00,NNE,30,8.3,8.3,45,0.00,,,0.00,VWS V13.01,2013-02-28 07:09:00,
2013-02-28 01:10:00,30.4,11.6,0.00,North,1,3.1,3.1,45,0.00,,,0.00,VWS V13.01,2013-02-28 07:10:00,
2013-02-28 01:11:00,30.4,11.6,0.00,North,5,4.0,6.7,45,0.00,,,0.00,VWS V13.01,2013-02-28 07:11:00,
2013-02-28 01:12:00,30.4,11.6,0.00,North,2,2.7,4.0,45,0.00,,,0.00,VWS V13.01,2013-02-28 07:12:00,
2013-02-28 01:13:00,30.4,11.6,0.00,North,3,5.4,8.3,45,0.00,,,0.00,VWS V13.01,2013-02-28 07:13:00,
2013-02-28 01:14:00,30.4,11.6,0.00,NE,36,5.4,8.3,45,0.00,,,0.00,VWS V13.01,2013-02-28 07:14:00,
2013-02-28 01:15:00,30.4,11.6,0.00,North,10,10.1,10.1,45,0.00,,,0.00,VWS V13.01,2013-02-28 07:15:00,
2013-02-28 01:16:00,30.4,11.6,0.00,NE,52,6.3,10.1,45,0.00,,,0.00,VWS V13.01,2013-02-28 07:16:00,
2013-02-28 01:17:00,30.4,11.6,0.00,North,5,4.5,6.3,45,0.00,,,0.00,VWS V13.01,2013-02-28 07:17:00,
2013-02-28 01:18:00,30.4,11.6,0.00,NE,40,4.5,5.8,45,0.00,,,0.00,VWS V13.01,2013-02-28 07:18:00,
2013-02-28 01:19:00,30.4,11.6,0.00,North,353,8.7,8.7,45,0.00,,,0.00,VWS V13.01,2013-02-28 07:19:00,
2013-02-28 01:20:00,30.4,11.6,0.00,NNW,332,5.4,5.4,45,0.00,,,0.00,VWS V13.01,2013-02-28 07:20:00,
2013-02-28 01:21:00,30.4,11.6,0.00,NW,324,11.0,11.0,45,0.00,,,0.00,VWS V13.01,2013-02-28 07:21:00,
2013-02-28 01:22:00,30.4,11.6,0.00,NE,42,0.0,11.0,45,0.00,,,0.00,VWS V13.01,2013-02-28 07:22:00,
2013-02-28 01:23:00,30.4,11.6,0.00,NNW,331,6.3,6.3,45,0.00,,,0.00,VWS V13.01,2013-02-28 07:23:00,
2013-02-28 01:24:00,30.4,11.6,0.00,North,349,5.4,6.3,45,0.00,,,0.00,VWS V13.01,2013-02-28 07:24:00,
2013-02-28 01:25:00,30.2,11.4,0.00,North,6,5.4,8.1,45,0.00,,,0.00,VWS V13.01,2013-02-28 07:25:00,
2013-02-28 01:26:00,30.2,11.4,0.00,NW,316,3.6,8.1,45,0.00,,,0.00,VWS V13.01,2013-02-28 07:26:00,
2013-02-28 01:27:00,30.2,11.4,0.00,NW,321,5.4,5.8,45,0.00,,,0.00,VWS V13.01,2013-02-28 07:27:00,
2013-02-28 01:28:00,30.2,11.4,0.00,North,4,6.3,6.3,45,0.00,,,0.00,VWS V13.01,2013-02-28 07:28:00,
2013-02-28 01:29:00,30.2,11.4,0.00,NNW,328,4.0,6.3,45,0.00,,,0.00,VWS V13.01,2013-02-28 07:29:00,
2013-02-28 01:30:00,30.2,11.4,0.00,NE,50,4.5,5.8,45,0.00,,,0.00,VWS V13.01,2013-02-28 07:30:00,
2013-02-28 01:31:00,30.2,11.4,0.00,NNW,332,5.8,5.8,45,0.00,,,0.00,VWS V13.01,2013-02-28 07:31:00,
2013-02-28 01:32:00,30.2,11.4,0.00,North,353,5.8,5.8,45,0.00,,,0.00,VWS V13.01,2013-02-28 07:32:00,
2013-02-28 01:33:00,30.2,11.4,0.00,NW,308,3.1,6.3,45,0.00,,,0.00,VWS V13.01,2013-02-28 07:33:00,
2013-02-28 01:34:00,30.2,11.4,0.00,North,357,3.1,4.9,45,0.00,,,0.00,VWS V13.01,2013-02-28 07:34:00,
2013-02-28 01:35:00,30.2,11.4,0.00,NNW,341,6.7,6.7,45,0.00,,,0.00,VWS V13.01,2013-02-28 07:35:00,
2013-02-28 01:36:00,30.2,11.9,0.00,NW,325,6.3,6.7,46,0.00,,,0.00,VWS V13.01,2013-02-28 07:36:00,
2013-02-28 01:37:00,30.2,11.9,0.00,NE,42,4.9,6.3,46,0.00,,,0.00,VWS V13.01,2013-02-28 07:37:00,
2013-02-28 01:38:00,30.2,11.9,0.00,NNW,346,3.1,5.8,46,0.00,,,0.00,VWS V13.01,2013-02-28 07:38:00,
2013-02-28 01:39:00,30.2,11.9,0.00,NW,326,5.4,8.3,46,0.00,,,0.00,VWS V13.01,2013-02-28 07:39:00,
2013-02-28 01:40:00,30.2,11.9,0.00,NNW,327,2.2,4.0,46,0.00,,,0.00,VWS V13.01,2013-02-28 07:40:00,
2013-02-28 01:41:00,30.2,11.9,0.00,North,9,5.4,5.4,46,0.00,,,0.00,VWS V13.01,2013-02-28 07:41:00,
2013-02-28 01:42:00,30.2,11.9,0.00,NNE,14,5.8,8.3,46,0.00,,,0.00,VWS V13.01,2013-02-28 07:42:00,
2013-02-28 01:43:00,30.2,11.9,0.00,NNE,14,2.2,5.8,46,0.00,,,0.00,VWS V13.01,2013-02-28 07:43:00,
2013-02-28 01:44:00,30.2,11.9,0.00,NE,46,2.2,3.1,46,0.00,,,0.00,VWS V13.01,2013-02-28 07:44:00,
2013-02-28 01:45:00,30.2,11.9,0.00,NW,307,3.6,4.0,46,0.00,,,0.00,VWS V13.01,2013-02-28 07:45:00,
2013-02-28 01:46:00,30.2,11.9,0.00,North,5,4.0,5.8,46,0.00,,,0.00,VWS V13.01,2013-02-28 07:46:00,
2013-02-28 01:47:00,30.2,11.9,0.00,NNE,15,12.8,12.8,46,0.00,,,0.00,VWS V13.01,2013-02-28 07:47:00,
2013-02-28 01:48:00,30.0,11.8,0.00,NNW,336,4.9,12.8,46,0.00,,,0.00,VWS V13.01,2013-02-28 07:48:00,
2013-02-28 01:49:00,30.0,11.8,0.00,NNW,346,7.6,8.1,46,0.00,,,0.00,VWS V13.01,2013-02-28 07:49:00,
2013-02-28 01:50:00,30.0,12.2,0.00,North,0,8.1,8.1,47,0.00,,,0.00,VWS V13.01,2013-02-28 07:50:00,
2013-02-28 01:51:00,30.0,12.2,0.00,North,357,8.7,8.7,47,0.00,,,0.00,VWS V13.01,2013-02-28 07:51:00,
2013-02-28 01:52:00,30.0,12.2,0.00,North,7,5.8,8.7,47,0.00,,,0.00,VWS V13.01,2013-02-28 07:52:00,
2013-02-28 01:53:00,30.0,12.2,0.00,North,353,2.2,8.1,47,0.00,,,0.00,VWS V13.01,2013-02-28 07:53:00,
2013-02-28 01:54:00,30.0,12.2,0.00,WNW,291,3.1,4.9,47,0.00,,,0.00,VWS V13.01,2013-02-28 07:54:00,
2013-02-28 01:55:00,30.0,12.2,0.00,North,0,4.0,7.6,47,0.00,,,0.00,VWS V13.01,2013-02-28 07:55:00,
2013-02-28 01:56:00,29.8,12.1,0.00,NNE,30,9.2,9.2,47,0.00,,,0.00,VWS V13.01,2013-02-28 07:56:00,
2013-02-28 01:57:00,29.8,11.6,0.00,NNW,339,4.0,9.2,46,0.00,,,0.00,VWS V13.01,2013-02-28 07:57:00,
2013-02-28 01:58:00,29.8,11.6,0.00,NE,41,4.0,12.8,46,0.00,,,0.00,VWS V13.01,2013-02-28 07:58:00,
2013-02-28 01:59:00,29.8,11.6,0.00,NNW,342,5.8,5.8,46,0.00,,,0.00,VWS V13.01,2013-02-28 07:59:00,
2013-02-28 02:00:00,29.8,11.6,0.00,North,6,6.3,13.2,46,0.00,,,0.00,VWS V13.01,2013-02-28 08:00:00,
2013-02-28 02:01:00,29.8,11.6,0.00,NNE,24,6.3,13.2,46,0.00,,,0.00,VWS V13.01,2013-02-28 08:01:00,
2013-02-28 02:02:00,29.8,11.6,0.00,NNW,331,3.1,8.3,46,0.00,,,0.00,VWS V13.01,2013-02-28 08:02:00,
2013-02-28 02:03:00,29.8,11.6,0.00,NW,326,5.4,6.3,46,0.00,,,0.00,VWS V13.01,2013-02-28 08:03:00,
2013-02-28 02:04:00,29.8,11.1,0.00,North,3,5.4,8.7,45,0.00,,,0.00,VWS V13.01,2013-02-28 08:04:00,
2013-02-28 02:05:00,29.8,11.1,0.00,NW,308,5.4,5.8,45,0.00,,,0.00,VWS V13.01,2013-02-28 08:05:00,
2013-02-28 02:06:00,29.8,11.1,0.00,NNW,329,2.7,5.8,45,0.00,,,0.00,VWS V13.01,2013-02-28 08:06:00,
2013-02-28 02:07:00,29.8,11.1,0.00,North,353,4.5,8.1,45,0.00,,,0.00,VWS V13.01,2013-02-28 08:07:00,
2013-02-28 02:08:00,29.8,11.1,0.00,NNE,15,6.7,6.7,45,0.00,,,0.00,VWS V13.01,2013-02-28 08:08:00,
2013-02-28 02:09:00,29.8,11.1,0.00,North,0,6.3,11.0,45,0.00,,,0.00,VWS V13.01,2013-02-28 08:09:00,
2013-02-28 02:10:00,29.8,11.1,0.00,NNW,335,3.6,8.3,45,0.00,,,0.00,VWS V13.01,2013-02-28 08:10:00,
2013-02-28 02:11:00,29.8,11.1,0.00,NW,325,3.1,8.3,45,0.00,,,0.00,VWS V13.01,2013-02-28 08:11:00,
2013-02-28 02:12:00,29.8,11.1,0.00,NNW,338,3.6,3.6,45,0.00,,,0.00,VWS V13.01,2013-02-28 08:12:00,
2013-02-28 02:13:00,29.8,11.1,0.00,North,0,3.6,5.4,45,0.00,,,0.00,VWS V13.01,2013-02-28 08:13:00,
2013-02-28 02:14:00,29.8,11.1,0.00,North,350,2.7,4.0,45,0.00,,,0.00,VWS V13.01,2013-02-28 08:14:00,
2013-02-28 02:15:00,29.8,11.1,0.00,NNE,27,5.4,5.4,45,0.00,,,0.00,VWS V13.01,2013-02-28 08:15:00,
2013-02-28 02:16:00,29.8,11.1,0.00,NNW,336,3.1,5.4,45,0.00,,,0.00,VWS V13.01,2013-02-28 08:16:00,
2013-02-28 02:17:00,29.8,11.1,0.00,NW,314,6.3,6.3,45,0.00,,,0.00,VWS V13.01,2013-02-28 08:17:00,
2013-02-28 02:18:00,29.7,10.9,0.00,West,279,3.6,6.3,45,0.00,,,0.00,VWS V13.01,2013-02-28 08:18:00,
2013-02-28 02:19:00,29.7,11.4,0.00,NNE,33,4.0,5.8,46,0.00,,,0.00,VWS V13.01,2013-02-28 08:19:00,
2013-02-28 02:20:00,29.7,11.4,0.00,NW,325,3.1,6.3,46,0.00,,,0.00,VWS V13.01,2013-02-28 08:20:00,
2013-02-28 02:21:00,29.7,11.4,0.00,North,353,6.3,6.3,46,0.00,,,0.00,VWS V13.01,2013-02-28 08:21:00,
2013-02-28 02:22:00,29.7,11.4,0.00,North,357,10.5,10.5,46,0.00,,,0.00,VWS V13.01,2013-02-28 08:22:00,
2013-02-28 02:23:00,29.7,11.4,0.00,NNE,14,8.1,10.5,46,0.00,,,0.00,VWS V13.01,2013-02-28 08:23:00,
2013-02-28 02:24:00,29.7,11.4,0.00,NNW,348,5.8,8.1,46,0.00,,,0.00,VWS V13.01,2013-02-28 08:24:00,
2013-02-28 02:25:00,29.7,11.4,0.00,NNW,338,4.9,6.3,46,0.00,,,0.00,VWS V13.01,2013-02-28 08:25:00,
2013-02-28 02:26:00,29.5,11.3,0.00,NNW,338,4.9,6.3,46,0.00,,,0.00,VWS V13.01,2013-02-28 08:26:00,
2013-02-28 02:27:00,29.5,11.3,0.00,North,2,7.6,7.6,46,0.00,,,0.00,VWS V13.01,2013-02-28 08:27:00,
2013-02-28 02:28:00,29.5,11.8,0.00,NNE,19,6.3,8.7,47,0.00,,,0.00,VWS V13.01,2013-02-28 08:28:00,
2013-02-28 02:29:00,29.5,11.8,0.00,North,6,4.0,8.3,47,0.00,,,0.00,VWS V13.01,2013-02-28 08:29:00,
2013-02-28 02:30:00,29.5,11.8,0.00,NW,324,9.6,9.6,47,0.00,,,0.00,VWS V13.01,2013-02-28 08:30:00,
2013-02-28 02:31:00,29.5,11.8,0.00,NE,38,6.3,9.6,47,0.00,,,0.00,VWS V13.01,2013-02-28 08:31:00,
2013-02-28 02:32:00,29.5,11.8,0.00,North,357,6.3,8.7,47,0.00,,,0.00,VWS V13.01,2013-02-28 08:32:00,
2013-02-28 02:33:00,29.5,11.8,0.00,North,353,6.3,8.1,47,0.00,,,0.00,VWS V13.01,2013-02-28 08:33:00,
2013-02-28 02:34:00,29.5,11.8,0.00,NNE,33,2.7,6.3,47,0.00,,,0.00,VWS V13.01,2013-02-28 08:34:00,
2013-02-28 02:35:00,29.5,11.8,0.00,NNW,332,8.3,8.3,47,0.00,,,0.00,VWS V13.01,2013-02-28 08:35:00,
2013-02-28 02:36:00,29.5,11.8,0.00,NNW,344,12.8,12.8,47,0.00,,,0.00,VWS V13.01,2013-02-28 08:36:00,
2013-02-28 02:37:00,29.5,11.8,0.00,ENE,72,5.8,12.8,47,0.00,,,0.00,VWS V13.01,2013-02-28 08:37:00,
2013-02-28 02:38:00,29.3,11.6,0.00,NNW,341,10.5,10.5,47,0.00,,,0.00,VWS V13.01,2013-02-28 08:38:00,
2013-02-28 02:39:00,29.3,11.6,0.00,NNE,24,4.0,11.0,47,0.00,,,0.00,VWS V13.01,2013-02-28 08:39:00,
2013-02-28 02:40:00,29.3,11.6,0.00,NNW,339,3.6,6.7,47,0.00,,,0.00,VWS V13.01,2013-02-28 08:40:00,
2013-02-28 02:41:00,29.3,11.6,0.00,North,353,4.0,6.7,47,0.00,,,0.00,VWS V13.01,2013-02-28 08:41:00,
2013-02-28 02:42:00,29.3,12.1,0.00,NE,43,4.0,4.0,48,0.00,,,0.00,VWS V13.01,2013-02-28 08:42:00,
2013-02-28 02:43:00,29.3,12.1,0.00,NNW,339,6.3,6.3,48,0.00,,,0.00,VWS V13.01,2013-02-28 08:43:00,
2013-02-28 02:44:00,29.1,11.9,0.00,NE,47,3.6,10.5,48,0.00,,,0.00,VWS V13.01,2013-02-28 08:44:00,
2013-02-28 02:45:00,29.1,11.9,0.00,North,357,8.3,8.3,48,0.00,,,0.00,VWS V13.01,2013-02-28 08:45:00,
2013-02-28 02:46:00,29.1,11.9,0.00,NNE,22,4.9,8.3,48,0.00,,,0.00,VWS V13.01,2013-02-28 08:46:00,
2013-02-28 02:47:00,29.1,11.9,0.00,NNW,344,4.0,4.9,48,0.00,,,0.00,VWS V13.01,2013-02-28 08:47:00,
2013-02-28 02:48:00,29.1,11.9,0.00,North,353,6.3,6.3,48,0.00,,,0.00,VWS V13.01,2013-02-28 08:48:00,
2013-02-28 02:49:00,29.1,11.9,0.00,NNE,14,4.0,8.3,48,0.00,,,0.00,VWS V13.01,2013-02-28 08:49:00,
2013-02-28 02:50:00,29.1,11.9,0.00,NW,324,5.8,10.1,48,0.00,,,0.00,VWS V13.01,2013-02-28 08:50:00,
2013-02-28 02:51:00,29.1,11.9,0.00,NNW,341,5.4,10.1,48,0.00,,,0.00,VWS V13.01,2013-02-28 08:51:00,
2013-02-28 02:52:00,29.1,11.9,0.00,NNE,24,5.8,6.3,48,0.00,,,0.00,VWS V13.01,2013-02-28 08:52:00,
2013-02-28 02:53:00,28.9,11.7,0.00,North,357,8.1,8.3,48,0.00,,,0.00,VWS V13.01,2013-02-28 08:53:00,
2013-02-28 02:54:00,28.9,11.7,0.00,NNW,327,2.7,8.7,48,0.00,,,0.00,VWS V13.01,2013-02-28 08:54:00,
2013-02-28 02:55:00,28.9,11.7,0.00,North,7,0.0,3.1,48,0.00,,,0.00,VWS V13.01,2013-02-28 08:55:00,
2013-02-28 02:56:00,28.9,11.7,0.00,NW,325,0.0,3.1,48,0.00,,,0.00,VWS V13.01,2013-02-28 08:56:00,
2013-02-28 02:57:00,28.9,11.7,0.00,NNW,343,5.8,5.8,48,0.00,,,0.00,VWS V13.01,2013-02-28 08:57:00,
2013-02-28 02:58:00,28.9,11.7,0.00,NNE,21,3.1,7.6,48,0.00,,,0.00,VWS V13.01,2013-02-28 08:58:00,
2013-02-28 02:59:00,28.9,11.7,0.00,North,6,3.6,4.9,48,0.00,,,0.00,VWS V13.01,2013-02-28 08:59:00,
2013-02-28 03:00:00,28.9,11.7,0.00,NNE,20,8.3,8.3,48,0.00,,,0.00,VWS V13.01,2013-02-28 09:00:00,
2013-02-28 03:01:00,28.9,11.7,0.00,NW,317,3.1,8.3,48,0.00,,,0.00,VWS V13.01,2013-02-28 09:01:00,
2013-02-28 03:02:00,28.9,11.7,0.00,North,9,4.0,8.7,48,0.00,,,0.00,VWS V13.01,2013-02-28 09:02:00,
2013-02-28 03:03:00,28.9,11.7,0.00,NW,316,6.3,6.3,48,0.00,,,0.00,VWS V13.01,2013-02-28 09:03:00,
2013-02-28 03:04:00,28.9,11.7,0.00,NNW,341,3.1,6.3,48,0.00,,,0.00,VWS V13.01,2013-02-28 09:04:00,
2013-02-28 03:05:00,28.9,11.7,0.00,North,9,10.5,10.5,48,0.00,,,0.00,VWS V13.01,2013-02-28 09:05:00,
2013-02-28 03:06:00,28.9,11.7,0.00,North,0,10.1,10.5,48,0.00,,,0.00,VWS V13.01,2013-02-28 09:06:00,
2013-02-28 03:07:00,28.9,11.7,0.00,North,7,4.0,10.1,48,0.00,,,0.00,VWS V13.01,2013-02-28 09:07:00,
2013-02-28 03:08:00,28.9,11.7,0.00,North,350,5.8,7.6,48,0.00,,,0.00,VWS V13.01,2013-02-28 09:08:00,
2013-02-28 03:09:00,28.9,11.7,0.00,NNE,13,3.6,7.2,48,0.00,,,0.00,VWS V13.01,2013-02-28 09:09:00,
2013-02-28 03:10:00,28.9,11.7,0.00,NNE,33,3.1,4.0,48,0.00,,,0.00,VWS V13.01,2013-02-28 09:10:00,
2013-02-28 03:11:00,28.8,11.6,0.00,NNW,340,3.6,4.0,48,0.00,,,0.00,VWS V13.01,2013-02-28 09:11:00,
2013-02-28 03:12:00,28.8,11.6,0.00,NNE,13,5.8,5.8,48,0.00,,,0.00,VWS V13.01,2013-02-28 09:12:00,
2013-02-28 03:13:00,28.8,11.6,0.00,NNE,32,4.0,5.8,48,0.00,,,0.00,VWS V13.01,2013-02-28 09:13:00,
2013-02-28 03:14:00,28.8,11.6,0.00,North,8,6.3,10.1,48,0.00,,,0.00,VWS V13.01,2013-02-28 09:14:00,
2013-02-28 03:15:00,28.8,11.6,0.00,WNW,286,10.5,10.5,48,0.00,,,0.00,VWS V13.01,2013-02-28 09:15:00,
2013-02-28 03:16:00,28.8,11.6,0.00,WNW,286,10.5,10.5,48,0.00,,,0.00,VWS V13.01,2013-02-28 09:16:00,
2013-02-28 03:17:00,28.8,11.6,0.00,North,357,5.4,11.0,48,0.00,,,0.00,VWS V13.01,2013-02-28 09:17:00,
2013-02-28 03:18:00,28.8,11.6,0.00,WNW,297,5.8,8.7,48,0.00,,,0.00,VWS V13.01,2013-02-28 09:18:00,